RH
10 10 10 10 8 7 5 7 15 28 46 62 74 80 81 80 80 80 79 78 79 81 82 83 82 82 80 79 78 78 78 80 81 82 82 82 81 80 78 77 76 74 73 73 73 73 72 67 64 62 59 55 52 49 47 46 44 42 42 40 40 39 38 39 41 46 52 64 74 81 83 84 84 84 82 82 82 81 78 74 68 62 55 48 42 39
12 12 11 10 10 8 7 6 7 14 26 44 61 74 80 80 80 80 79 78 78 79 81 82 82 82 80 78 77 76 77 78 79 80 82 81 80 80 78 77 76 74 72 72 72 71 71 70 67 64 62 58 55 52 50 48 46 44 43 42 41 40 39 38 39 41 45 57 67 74 77 80 83 84 84 83 84 84 82 79 74 70 64 57 51 46
13 13 12 12 10 10 9 7 6 7 13 28 45 62 75 79 80 80 79 79 78 77 78 80 80 80 80 79 78 76 76 76 77 79 81 81 80 79 78 77 76 74 71 70 69 69 70 70 69 68 66 62 58 55 53 50 48 46 44 43 42 42 40 39 38 38 39 48 56 62 67 73 79 83 84 84 84 84 84 81 78 74 70 65 60 54
14 14 13 12 11 11 10 9 7 6 6 16 29 46 64 75 79 80 79 78 78 77 76 77 78 78 79 79 78 77 76 75 76 77 80 80 80 79 78 77 75 73 70 68 66 67 70 72 73 72 69 66 62 58 56 53 50 48 47 45 44 43 42 40 38 36 36 41 48 55 60 66 72 76 80 82 83 83 83 81 79 76 74 70 66 63
16 15 14 13 12 12 11 10 9 7 5 8 17 30 49 66 76 79 79 78 78 76 75 75 75 76 76 78 78 79 79 79 79 79 80 80 80 79 78 76 74 72 68 64 63 65 70 74 76 75 73 70 66 62 59 56 54 52 51 48 46 44 43 41 39 37 35 38 44 51 56 61 66 70 74 77 79 80 80 80 79 77 75 72 69 68
18 16 15 14 13 12 12 12 10 8 6 6 10 18 34 55 70 78 79 79 78 76 74 73 73 74 74 76 77 79 82 83 83 82 82 81 80 79 77 76 73 70 66 62 60 63 69 75 78 78 76 72 68 65 61 58 57 56 56 53 50 48 46 43 40 38 36 38 44 50 54 57 60 64 69 72 74 76 76 77 77 76 74 72 70 70
19 18 17 16 14 13 13 12 12 10 8 6 6 11 22 45 64 76 79 78 78 76 74 73 72 72 73 74 76 78 81 82 82 82 82 81 80 79 77 75 72 68 63 60 60 63 68 74 78 79 77 74 71 68 64 60 58 58 58 57 56 54 51 47 43 40 36 39 44 50 51 53 55 58 62 66 68 70 72 72 73 73 73 71 71 72
20 19 18 16 15 14 14 13 12 11 10 7 6 7 13 34 56 73 78 78 78 78 76 74 72 71 72 74 75 77 79 80 82 82 81 80 80 79 77 74 70 66 61 60 62 65 68 74 78 80 78 76 73 70 66 63 60 59 59 60 60 60 58 54 48 42 38 39 43 46 47 48 50 52 56 60 62 65 67 68 68 70 71 71 72 76
21 20 19 18 16 15 14 14 13 12 11 8 7 6 8 22 44 64 74 77 78 78 77 74 72 70 70 72 74 76 77 78 79 80 80 79 78 78 76 74 71 66 61 62 64 67 69 74 78 80 79 77 75 72 69 66 63 60 60 60 62 64 64 60 54 47 40 40 41 43 44 44 46 50 54 56 59 61 64 66 68 71 72 74 76 80
21 21 20 19 18 16 15 14 14 13 12 10 8 6 7 16 32 51 66 74 77 78 78 76 73 70 69 69 71 74 76 76 77 77 77 76 76 76 76 75 72 68 64 65 67 69 71 74 78 81 80 78 76 74 71 68 65 62 60 60 62 64 66 64 60 52 44 41 40 42 44 46 48 51 54 57 58 60 64 70 74 77 78 80 82 83
22 21 21 20 19 17 16 15 14 13 12 11 8 6 6 11 24 41 60 70 76 78 78 77 74 71 68 67 68 71 73 74 75 75 74 74 74 76 77 77 75 72 69 70 70 72 72 75 79 81 81 79 77 75 73 70 66 64 61 60 60 62 64 65 63 57 49 44 43 44 47 49 51 54 58 59 61 64 70 78 82 84 84 84 84 84
22 22 22 21 20 18 16 15 14 13 12 11 9 8 7 9 19 35 56 67 74 78 78 78 76 74 70 67 66 68 71 73 74 74 73 72 74 75 77 77 76 74 73 72 72 72 73 76 79 82 82 80 78 76 74 71 68 65 62 60 58 60 62 63 63 60 55 49 46 46 48 50 54 57 60 62 64 68 77 83 86 86 86 85 85 85
23 23 23 22 20 18 16 15 14 13 12 11 10 8 8 8 18 33 54 66 73 76 78 79 78 76 73 69 66 66 69 71 72 72 71 71 72 74 76 76 75 74 73 72 72 72 74 76 80 82 82 80 79 77 74 72 70 66 63 60 58 58 58 58 60 60 58 54 51 49 50 52 55 59 63 64 66 69 79 84 86 86 85 83 82 82
24 24 24 22 20 18 16 15 14 13 12 11 10 8 7 9 18 34 54 67 73 76 77 78 78 78 76 72 69 68 68 69 70 70 70 70 71 72 74 74 74 74 73 73 73 74 74 77 80 82 82 81 79 77 76 74 71 68 65 62 59 56 55 54 56 58 58 59 56 53 50 52 54 58 63 64 65 68 75 83 86 86 85 82 80 80
24 25 24 22 20 18 16 15 14 13 12 11 10 9 8 11 21 35 53 66 74 76 77 78 79 79 78 76 73 70 69 69 69 69 69 69 69 70 72 73 73 74 74 75 76 76 76 77 79 81 81 80 80 78 76 74 72 70 66 63 60 57 54 53 54 56 60 61 60 56 52 52 53 56 60 60 61 64 70 79 84 86 86 85 83 81
25 25 24 22 20 18 16 15 14 14 13 12 10 9 8 12 20 33 50 64 73 77 77 76 76 78 79 77 74 72 72 69 68 68 66 66 67 68 70 71 72 74 74 76 76 76 76 76 78 79 80 80 79 78 77 75 73 71 68 65 62 58 55 52 53 56 60 63 63 61 58 56 56 56 57 58 58 61 66 74 81 85 86 86 85 84
26 26 24 22 20 18 16 15 14 14 13 12 10 8 8 11 18 31 47 63 72 76 76 74 74 76 80 78 75 73 71 70 69 68 65 64 64 66 68 70 72 73 74 74 75 75 75 75 76 77 78 78 78 78 77 76 74 71 68 66 62 60 56 53 53 56 60 63 66 68 68 66 66 66 66 64 64 66 68 74 79 84 85 85 84 84
26 26 25 22 20 18 16 16 15 14 14 12 10 8 8 11 18 30 45 62 72 76 75 72 72 74 78 77 75 72 68 69 70 69 65 63 62 64 68 70 72 72 73 73 74 74 74 74 74 74 76 77 78 78 77 76 74 72 69 66 64 61 58 54 52 53 56 61 66 71 74 77 79 79 79 77 77 79 78 80 82 83 84 84 82 81
27 27 25 23 20 18 17 16 16 15 14 12 10 8 8 12 18 28 41 58 69 75 76 74 72 72 75 77 76 72 69 70 70 69 65 62 61 64 69 71 72 72 72 72 72 73 73 73 73 74 75 76 76 76 76 75 74 72 70 68 65 63 60 56 53 51 51 57 62 68 74 77 80 82 82 82 82 83 83 84 83 83 83 82 82 80
28 27 26 23 21 19 18 17 16 16 14 12 10 8 8 12 18 26 37 53 66 74 74 76 74 72 72 76 76 76 74 73 72 70 66 60 60 62 66 67 68 68 68 68 69 70 72 73 74 74 74 74 75 76 76 75 74 72 70 68 66 64 62 58 54 52 51 54 59 64 70 74 77 79 80 81 82 82 82 80 80 80 80 80 80 80
28 28 26 24 22 20 19 18 17 16 15 13 10 8 8 12 18 27 38 51 65 74 74 76 76 73 70 74 76 76 76 73 72 70 64 59 57 58 59 60 61 62 63 64 66 68 70 72 73 73 74 74 76 76 76 76 74 72 70 68 66 65 64 60 57 54 53 54 57 61 64 65 68 72 74 74 75 76 76 74 74 74 76 77 78 78
29 28 26 24 22 21 20 18 18 17 16 14 11 8 8 13 21 30 39 51 64 74 76 77 77 74 72 75 76 76 76 73 72 69 63 60 58 56 53 53 54 56 59 60 62 65 68 70 72 74 75 76 78 78 78 76 74 73 71 69 67 66 64 62 60 58 56 55 57 60 65 66 66 66 65 64 64 65 66 66 68 70 73 74 76 77
29 28 27 24 23 21 19 18 18 17 16 14 11 8 7 13 22 32 39 49 63 75 77 77 77 77 76 76 76 76 76 73 69 65 63 61 59 56 52 50 51 52 55 56 59 62 65 68 72 75 77 79 80 80 79 77 76 74 72 70 68 66 65 63 61 60 60 59 60 62 66 65 64 63 61 58 58 58 58 59 61 64 68 72 74 76
29 28 26 24 22 20 19 18 17 16 16 14 12 8 7 13 23 32 38 44 60 75 77 77 78 79 79 78 78 78 76 70 66 62 62 61 60 58 55 52 51 51 52 53 56 58 62 67 72 76 80 81 82 82 80 79 78 76 75 73 69 66 66 64 63 62 64 64 65 66 67 66 65 64 60 58 56 56 56 56 58 60 63 68 71 74
28 28 26 24 22 20 18 16 16 15 15 14 12 10 7 13 23 34 39 42 56 72 80 78 78 79 80 79 78 78 78 72 66 62 60 60 60 60 60 56 54 52 50 50 52 56 60 66 71 76 81 83 83 82 82 80 80 78 78 76 72 69 68 64 63 64 66 68 69 69 68 68 67 66 63 61 60 60 60 59 58 58 61 64 68 71
27 26 25 23 22 20 18 16 15 14 14 14 12 10 7 12 24 36 42 42 52 67 82 80 78 78 78 78 78 78 79 77 72 65 60 60 62 64 65 61 57 53 50 48 50 53 58 64 70 76 82 84 84 83 82 82 81 81 80 78 76 73 70 66 64 64 68 68 68 68 68 68 68 67 66 66 65 64 64 64 62 61 61 64 66 68
26 25 24 23 21 19 18 16 14 13 13 13 12 10 6 12 26 40 46 40 47 62 80 80 78 77 77 78 79 79 79 79 76 72 65 64 65 66 67 64 60 55 50 48 48 50 56 62 68 75 81 83 84 84 84 83 82 82 81 80 78 75 72 69 66 66 70 69 68 68 69 69 69 69 69 69 68 68 68 68 67 66 64 64 66 66
24 24 23 22 21 19 18 16 14 12 11 12 11 10 6 11 26 42 50 40 44 58 77 80 79 78 77 78 79 80 78 79 79 77 72 68 67 67 66 64 60 56 52 49 48 49 54 60 66 72 77 80 82 84 84 83 82 82 82 81 79 77 74 72 70 70 71 70 69 69 70 70 70 71 71 71 71 70 70 70 69 68 66 66 65 64
23 23 22 21 20 19 18 16 14 12 11 10 10 9 6 10 25 43 54 41 42 55 76 80 80 79 77 77 77 78 78 78 79 78 76 73 69 66 64 62 60 57 54 52 50 50 53 58 63 68 73 77 80 82 84 83 82 82 81 80 79 78 76 74 72 71 71 71 71 71 70 69 70 71 72 73 73 74 74 73 72 70 68 66 64 63
22 22 21 20 20 18 18 16 14 12 11 10 10 8 7 8 22 42 59 43 40 50 77 78 79 79 77 76 76 77 79 79 78 78 78 76 72 67 63 61 58 56 54 54 53 53 54 57 61 65 69 73 76 80 82 83 82 82 81 80 78 77 76 74 72 70 70 69 70 70 69 68 68 69 71 73 74 74 74 74 73 72 69 67 64 62
21 21 20 20 19 18 17 16 15 13 11 10 9 8 6 5 18 39 59 44 39 48 76 77 78 79 78 76 76 77 79 78 78 78 78 78 74 70 66 61 56 54 53 54 54 54 55 57 60 63 66 69 73 78 82 82 82 82 81 80 79 78 76 75 73 71 69 68 68 68 67 68 68 69 70 72 72 72 71 72 72 70 69 68 66 65
20 20 19 18 18 17 16 16 14 13 12 10 9 8 6 4 14 32 54 44 40 47 71 77 79 79 78 77 76 77 78 76 76 77 78 78 78 75 71 62 56 53 52 52 53 54 55 58 60 61 63 66 70 76 81 82 82 81 81 80 79 78 76 75 74 73 72 70 68 67 67 69 70 71 72 72 70 68 68 68 67 67 67 68 69 70
20 19 19 18 17 16 15 14 14 13 12 10 10 8 6 4 10 24 49 45 41 45 65 76 79 78 78 77 77 77 78 77 77 78 78 77 78 78 76 67 60 55 52 52 52 54 56 58 59 60 61 64 69 75 81 82 81 81 80 80 79 77 75 74 74 75 75 73 71 69 69 68 69 70 71 70 69 67 66 65 65 65 66 67 68 70
20 19 18 17 16 16 14 14 13 12 11 10 10 8 7 4 6 16 42 44 40 42 59 74 79 78 78 78 78 78 78 77 78 78 77 77 78 79 78 74 66 59 55 53 53 54 58 60 61 62 62 63 68 74 80 81 81 80 80 79 78 77 75 74 74 75 75 73 72 70 68 66 66 67 67 66 65 64 64 63 64 65 66 66 66 66
19 18 18 16 16 15 14 13 12 12 11 10 9 8 8 5 4 11 31 40 40 40 52 69 77 78 78 77 77 77 77 76 76 78 77 77 77 78 78 78 74 66 60 56 54 56 59 60 61 62 64 66 69 73 78 79 80 79 79 78 78 76 76 74 74 74 74 72 70 68 66 65 64 62 61 60 60 60 61 61 63 64 66 66 65 64
19 18 17 16 15 14 13 12 12 11 10 10 9 8 8 6 4 7 19 33 37 39 46 62 72 77 78 77 77 77 76 75 75 77 78 78 78 78 78 79 78 74 68 61 58 57 58 59 60 61 64 68 70 72 74 76 78 79 79 78 77 76 76 76 76 76 75 74 72 71 70 67 64 61 60 59 59 60 60 61 62 64 66 68 68 69
19 18 17 16 15 14 13 12 11 10 10 9 8 8 8 6 4 5 10 25 32 36 40 53 64 73 77 77 77 77 77 75 74 75 78 78 78 78 78 79 79 78 77 70 64 60 58 60 60 61 64 68 70 71 72 73 74 77 78 78 78 77 76 76 76 77 78 78 77 77 75 73 71 69 68 67 66 66 65 65 66 68 69 69 70 71
20 19 18 16 16 15 14 13 12 11 10 10 9 8 7 7 5 4 5 18 26 31 36 45 56 66 73 76 77 76 76 76 74 73 75 78 79 79 78 78 78 79 80 77 72 66 62 63 63 64 63 64 66 68 69 69 71 73 76 78 78 78 78 77 77 78 80 80 80 80 79 79 78 78 78 77 76 74 74 74 75 76 77 76 75 74
21 20 19 18 18 17 16 15 14 13 12 11 10 9 8 7 6 4 3 11 18 25 30 38 47 57 66 73 76 77 75 74 74 73 74 76 78 79 79 79 79 79 79 79 78 74 70 68 66 66 65 66 66 66 66 66 68 70 74 78 80 80 80 80 80 80 81 81 81 81 80 80 80 81 81 80 80 80 80 81 82 82 82 82 81 80
24 23 23 22 21 20 20 18 18 16 16 14 13 12 10 8 7 5 3 7 13 20 25 32 39 48 58 68 74 77 76 76 75 74 74 75 77 78 79 79 79 79 78 79 79 78 76 74 72 70 70 71 70 68 66 66 67 70 75 79 80 81 81 81 81 81 81 81 81 80 80 80 80 80 79 79 80 80 81 82 82 82 82 82 82 82
28 28 28 26 26 25 24 23 22 21 20 19 18 16 14 12 10 7 4 4 8 14 20 26 34 42 50 63 72 76 76 76 77 77 76 76 76 78 79 79 79 80 79 79 79 79 79 79 78 78 78 78 78 76 72 70 70 72 76 79 80 80 81 81 81 81 81 81 80 80 79 79 78 78 78 78 78 79 80 81 81 81 81 81 81 81
35 35 34 33 32 31 30 29 28 26 26 24 23 21 19 16 14 10 7 5 6 10 16 23 29 36 44 56 67 74 76 76 78 78 78 76 77 78 78 78 78 79 80 79 79 79 79 79 80 80 80 81 81 81 80 79 78 77 78 78 79 80 82 81 81 80 80 80 80 79 78 78 77 77 77 77 77 78 78 79 79 79 80 79 79 79
43 43 41 39 38 37 36 35 33 32 30 29 27 26 24 21 18 14 10 7 7 9 14 19 26 32 40 51 63 73 76 76 77 78 78 78 78 78 77 76 76 76 79 80 79 79 78 78 79 79 79 80 80 81 81 81 81 80 80 79 80 80 81 80 80 80 80 79 78 78 77 76 76 76 76 76 76 76 76 76 76 76 76 76 76 76
53 52 50 47 45 43 43 42 40 37 34 32 30 28 26 24 21 18 15 12 11 11 14 18 24 30 38 47 60 71 76 75 76 77 77 77 77 77 75 73 72 73 77 79 80 79 78 79 79 78 78 79 80 80 80 80 81 81 80 80 80 80 79 79 79 79 79 78 78 77 76 76 75 74 74 74 74 74 73 73 73 73 73 72 73 73
62 61 58 55 52 50 51 50 48 44 40 37 34 32 31 30 28 26 23 20 19 18 18 20 24 30 36 44 55 66 74 76 77 77 76 76 76 74 72 70 70 72 76 79 80 80 79 79 79 78 78 78 78 79 79 80 80 80 80 80 80 80 79 79 79 79 78 78 77 76 76 75 74 74 74 73 72 72 71 70 70 70 69 69 69 69
69 68 66 62 59 58 58 57 55 52 49 45 43 42 42 44 47 47 42 36 31 27 24 24 27 32 36 42 50 59 69 75 77 78 76 76 74 72 69 68 70 72 76 78 80 80 80 79 79 79 79 78 78 77 78 78 78 78 78 78 78 78 78 78 78 77 76 77 77 76 75 74 74 74 74 72 71 70 68 68 67 67 66 66 66 66
71 71 70 67 64 63 62 62 61 60 59 57 56 56 58 62 66 68 65 56 47 38 32 30 31 34 37 41 46 54 64 73 77 78 77 76 73 72 71 72 73 74 77 79 80 80 80 79 79 79 78 78 77 77 77 77 76 76 76 76 76 76 77 76 76 74 74 76 76 75 74 74 74 73 73 72 70 69 67 66 65 64 64 64 64 64
70 70 69 68 66 66 66 66 65 65 66 65 64 65 68 70 72 72 72 68 61 51 40 36 35 37 40 42 46 52 62 73 77 78 78 76 73 72 76 76 77 78 79 79 80 80 79 79 78 78 78 77 77 77 76 76 75 74 74 74 74 74 74 74 73 72 72 73 73 72 72 72 72 72 72 71 70 68 67 65 64 62 61 61 61 61
68 68 67 66 66 67 69 68 67 66 67 66 66 66 68 72 73 73 73 72 69 63 51 42 39 40 42 43 46 53 67 75 78 78 78 76 75 75 77 78 78 78 79 79 79 79 79 79 78 77 76 76 76 77 76 76 74 74 73 72 72 72 71 71 70 70 69 69 69 69 69 69 69 69 70 70 69 68 68 65 63 61 60 58 58 57
66 66 65 65 66 68 69 68 68 68 67 66 66 65 66 70 72 73 73 73 72 69 61 50 44 42 43 44 49 59 75 77 78 78 79 78 78 78 78 78 78 78 78 78 78 78 78 78 78 77 76 76 76 76 76 74 73 72 71 70 68 67 66 65 64 64 63 63 64 64 66 66 66 67 68 68 69 69 68 66 64 62 60 58 56 55
65 64 64 64 65 67 68 67 67 67 67 67 66 65 64 68 71 72 72 74 74 72 68 57 51 48 45 48 58 70 79 78 78 78 78 78 78 78 78 78 77 77 78 78 78 78 78 78 78 77 76 76 75 74 74 72 71 69 66 64 61 59 57 56 55 55 55 56 57 58 60 62 64 65 66 68 70 72 69 68 66 63 61 58 57 55
Wind_Speed
81 84 87 89 91 93 97 102 107 111 113 113 111 108 105 102 100 97 93 90 88 89 89 89 88 85 81 76 72 71 73 77 80 81 79 77 74 72 71 71 71 71 71 71 70 68 67 67 68 70 71 71 70 70 69 68 67 67 66 65 64 63 61 60 59 58 57 55 52 48 44 42 41 41 42 43 44 45 45 46 46 47 49 50 51 51
79 82 84 86 89 91 94 97 101 106 111 113 113 110 106 102 99 96 92 90 90 92 93 93 92 89 84 79 75 74 76 78 80 80 79 78 76 75 73 72 71 71 71 71 70 68 67 66 67 68 69 70 70 70 69 69 68 68 67 66 65 64 62 62 61 60 60 58 55 52 48 45 42 41 40 41 42 43 43 43 44 45 46 48 49 50
76 78 81 84 87 89 91 93 96 101 106 111 113 112 108 104 100 96 92 89 89 92 95 95 94 91 87 82 79 78 78 79 80 79 79 78 77 76 75 74 73 72 71 70 69 68 67 65 65 66 67 69 70 70 70 69 69 69 68 67 66 65 64 63 62 62 61 60 58 55 52 48 45 42 40 40 40 41 42 42 42 43 44 45 47 48
73 75 79 82 85 87 89 91 93 96 101 106 110 111 109 105 101 98 94 91 89 90 93 95 95 92 89 85 83 81 79 79 79 79 79 79 78 77 76 75 74 73 72 71 70 68 67 65 64 64 65 67 68 69 69 69 69 69 68 68 67 66 65 63 62 62 61 61 59 57 54 51 48 45 42 40 39 40 41 41 41 42 43 44 46 47
71 73 76 79 82 84 87 88 90 92 96 100 104 107 107 105 103 100 97 94 90 89 90 93 95 94 92 89 86 82 79 77 77 79 80 80 80 78 77 76 76 75 74 73 71 69 67 65 64 63 64 65 67 68 68 69 68 68 67 67 67 66 65 64 63 62 61 61 60 58 56 53 51 48 45 42 40 40 40 40 40 41 42 43 45 46
69 71 74 76 79 82 84 86 87 89 91 94 98 102 105 105 102 99 98 95 92 90 89 91 94 96 95 93 89 84 79 77 76 77 79 80 80 79 78 77 77 77 76 74 72 70 68 66 64 63 63 64 66 67 68 68 68 67 66 66 66 66 65 64 63 62 61 62 61 58 56 55 53 51 49 46 44 42 40 40 40 40 42 43 45 46
67 68 70 72 76 79 82 83 85 86 88 90 94 98 101 102 99 96 96 96 94 91 90 91 94 96 96 95 91 87 82 79 78 77 78 78 78 78 78 78 78 78 77 75 74 72 70 67 65 63 63 64 65 66 67 68 68 67 66 65 64 64 64 63 63 62 62 63 61 58 57 56 55 53 52 50 47 45 43 41 41 41 42 44 45 47
64 65 66 69 72 76 78 80 82 84 86 88 90 94 97 99 96 94 95 95 93 91 90 91 93 95 95 95 93 90 86 82 80 79 79 78 77 77 77 78 78 78 77 76 75 74 72 69 66 64 63 64 65 66 67 67 67 67 66 64 63 63 62 62 62 62 62 62 61 59 57 57 56 55 54 52 50 48 46 44 43 42 43 44 46 47
63 63 64 66 69 71 74 77 80 83 84 86 87 90 93 97 95 93 95 94 92 90 89 90 92 94 95 95 95 93 90 86 83 82 81 80 79 78 77 78 78 78 78 77 76 75 74 71 68 65 64 64 65 66 66 67 67 67 66 65 63 62 61 61 61 61 61 61 60 59 58 58 57 56 55 53 51 49 47 45 43 43 43 44 45 46
62 61 62 64 66 69 72 75 79 81 83 83 85 87 91 95 96 95 95 93 91 90 89 89 91 92 94 95 95 95 93 90 87 85 84 83 81 79 78 78 78 78 78 78 77 77 75 73 70 67 65 65 65 66 67 67 67 67 66 65 63 62 60 60 60 60 60 60 60 59 59 58 57 57 55 53 51 48 45 43 42 42 42 43 43 44
61 60 60 61 63 67 70 74 77 79 80 81 82 84 87 91 94 95 94 92 91 90 88 88 88 90 91 93 95 96 95 93 91 89 87 85 82 80 79 79 79 79 79 79 79 78 77 74 71 68 65 65 66 66 67 67 67 67 66 65 64 62 61 60 59 59 58 59 59 59 59 58 57 56 55 53 50 46 42 40 40 40 40 40 41 42
60 59 59 60 61 64 68 72 74 76 77 77 78 80 83 87 91 93 93 93 91 88 87 86 86 86 88 91 93 95 96 95 93 92 90 87 84 82 80 80 80 80 80 80 80 79 78 76 72 68 66 65 66 67 67 68 68 67 67 66 65 63 62 60 58 57 57 58 59 60 59 59 58 56 55 52 49 45 41 40 40 40 39 39 41 42
59 58 57 58 60 62 65 68 70 72 73 75 76 78 81 85 89 91 93 93 91 88 86 84 84 84 86 88 91 93 94 94 94 93 92 89 87 84 82 81 80 80 80 81 81 80 79 77 73 69 66 65 65 66 67 68 68 67 67 66 65 64 63 61 59 58 57 59 60 61 60 59 58 57 55 52 49 46 43 42 42 42 40 40 41 42
58 57 56 56 58 60 62 65 67 69 72 75 77 79 82 84 87 89 91 91 89 87 85 84 82 82 83 85 87 89 91 91 92 92 92 91 89 87 85 83 82 81 80 80 81 81 80 78 75 71 67 65 64 65 66 67 68 67 67 67 66 65 64 63 61 60 59 60 61 61 61 60 59 58 56 53 51 49 47 47 46 45 42 40 40 41
57 56 55 55 56 57 60 62 65 68 72 75 77 79 80 82 84 87 89 89 88 86 85 83 82 81 81 83 84 86 87 88 88 89 90 90 90 89 87 85 83 82 81 80 81 81 81 80 77 73 69 65 64 64 65 66 67 67 67 67 66 66 65 64 63 62 61 60 60 60 60 60 60 59 56 54 53 52 51 51 50 49 46 41 38 37
56 54 53 53 54 56 58 61 64 67 70 73 74 76 77 79 82 86 88 88 87 85 83 83 81 81 80 82 84 85 85 85 85 86 87 89 90 90 89 87 85 83 82 80 80 81 81 81 79 76 72 68 65 64 64 65 66 67 67 67 66 66 65 65 64 63 61 59 58 58 59 59 59 58 56 55 54 54 54 54 54 53 50 44 38 35
55 53 52 52 52 54 56 59 62 66 69 71 72 74 76 79 83 86 88 88 85 82 81 82 82 81 81 82 84 85 85 84 83 84 85 87 88 89 89 88 86 85 83 81 81 81 81 81 81 79 75 71 68 65 65 65 66 67 67 67 66 66 66 66 65 63 61 59 57 57 57 57 56 55 53 53 54 54 55 56 57 56 54 50 45 39
53 52 50 50 50 52 54 57 61 64 67 69 71 74 77 80 83 86 87 86 83 79 78 80 81 81 81 82 83 85 86 85 83 83 84 86 87 87 88 88 87 86 84 82 81 81 81 81 81 80 78 74 71 68 66 66 66 67 67 67 67 67 66 66 66 65 62 60 58 57 57 55 53 50 50 51 52 54 55 57 58 58 57 55 52 47
52 51 49 49 49 50 52 55 59 62 65 68 71 74 77 79 82 84 85 85 82 78 75 75 78 80 81 82 83 84 85 84 84 84 85 86 86 86 87 88 88 87 85 84 83 82 81 81 81 80 78 76 73 70 68 67 67 68 68 68 68 67 67 67 67 66 65 63 62 61 59 57 54 52 51 52 53 54 55 56 57 57 57 56 55 53
51 50 48 48 48 48 50 54 57 61 65 68 71 73 76 79 81 83 85 86 82 78 74 74 75 77 79 80 81 82 82 83 84 85 86 86 86 86 87 88 88 88 87 86 84 82 81 80 80 79 78 77 74 72 70 69 68 69 69 69 69 68 68 67 67 67 66 65 64 63 62 60 59 57 57 56 56 56 56 56 56 56 55 54 54 54
51 49 48 47 46 47 49 52 56 60 63 67 70 73 76 78 81 83 86 86 83 77 74 74 75 76 77 78 78 79 80 82 84 86 86 86 85 86 87 88 89 89 88 87 85 83 81 80 79 78 78 76 75 72 71 70 69 69 69 69 69 69 69 68 68 67 67 66 65 64 64 63 63 62 61 61 60 59 58 58 57 56 55 54 53 53
50 49 47 46 45 45 47 49 53 57 62 66 69 72 76 78 81 84 86 87 83 78 74 75 76 76 76 76 77 78 80 82 84 85 85 84 84 85 87 88 88 89 88 87 86 84 82 80 78 78 77 76 74 73 71 70 70 69 70 70 70 70 70 69 68 68 67 66 66 65 65 64 64 64 63 63 63 62 62 61 60 59 57 56 55 54
50 49 47 46 44 44 45 47 50 55 60 65 69 72 76 79 82 85 87 88 85 80 75 75 77 78 76 76 76 78 80 82 84 84 83 82 83 84 85 86 87 87 87 87 86 84 82 80 78 77 77 76 74 73 72 71 70 70 70 70 71 71 70 70 69 68 67 67 66 66 65 65 65 64 64 64 64 64 64 64 63 62 60 58 57 56
49 48 47 46 44 43 43 44 48 53 58 63 68 72 76 79 82 85 88 90 88 82 76 74 77 79 78 77 77 78 80 82 83 82 82 81 82 83 84 85 85 86 87 87 86 85 83 81 79 77 76 75 74 73 73 72 71 71 71 71 71 71 71 70 69 68 67 67 67 67 66 66 65 64 64 64 64 64 65 64 64 63 62 60 58 57
49 48 47 46 44 43 42 42 45 50 56 62 67 71 75 79 82 85 88 90 88 83 76 72 75 80 82 81 80 80 80 81 82 82 82 81 81 82 82 83 84 85 86 86 86 84 83 81 79 77 76 74 73 73 72 72 72 72 72 72 72 72 72 71 70 69 68 68 68 68 67 66 65 65 65 64 64 64 64 64 64 63 62 60 59 57
49 48 47 46 44 43 41 41 43 47 52 59 65 70 74 79 82 85 87 89 89 84 77 72 74 79 83 84 83 81 81 81 82 82 82 82 81 81 82 83 84 85 85 85 85 84 83 81 79 77 75 74 72 72 72 72 72 72 72 73 73 73 73 72 71 70 70 69 68 68 67 67 66 65 65 64 64 64 64 64 63 63 62 60 59 58
48 48 47 46 45 43 41 40 41 44 49 56 63 69 74 78 82 84 87 90 90 86 80 74 73 76 78 80 81 81 81 81 81 82 83 83 82 81 82 83 84 84 85 85 85 85 84 82 80 78 75 73 72 71 70 71 71 72 72 73 74 74 74 73 72 71 70 69 69 68 67 67 66 66 65 64 64 63 63 63 63 62 61 60 59 58
48 47 46 46 45 43 42 40 39 41 45 52 59 66 73 77 81 85 88 91 92 89 83 76 72 71 70 71 74 77 78 78 80 83 84 84 83 82 82 83 83 83 84 85 85 85 84 83 81 79 76 74 72 70 69 70 70 71 72 73 74 75 74 74 73 72 71 70 69 68 67 67 66 66 65 64 63 63 62 62 61 61 60 60 59 58
47 46 46 45 45 44 42 41 39 39 41 47 55 63 70 77 82 85 89 92 93 91 86 79 72 67 64 64 67 70 70 72 77 82 84 84 84 84 84 83 82 83 83 84 84 84 84 83 82 80 77 75 72 70 69 69 70 71 72 73 74 75 75 74 74 73 72 70 69 68 67 66 66 65 64 63 62 61 61 60 59 59 59 58 58 58
46 46 45 45 44 44 43 41 40 39 39 43 49 58 67 76 82 86 89 92 94 94 90 82 73 66 61 59 59 60 60 63 70 79 83 84 85 85 85 83 82 82 83 83 83 83 83 83 82 80 78 76 73 71 70 70 70 71 72 73 74 74 74 74 74 73 72 71 70 68 67 66 65 65 64 63 62 61 60 58 57 57 57 57 56 56
45 44 44 44 44 44 43 42 41 40 39 40 45 53 63 73 81 86 89 92 95 96 94 87 77 67 61 59 56 53 52 55 63 72 80 83 86 86 86 84 84 83 83 82 82 82 82 82 81 80 79 76 74 72 71 70 70 71 72 73 73 74 74 73 73 73 73 72 71 69 68 67 66 65 64 63 62 61 60 58 57 56 56 56 56 55
43 43 43 43 43 43 43 43 42 41 40 40 42 48 58 69 79 85 89 93 96 98 97 91 82 72 65 63 60 56 52 52 56 64 74 81 84 86 86 86 85 84 83 83 82 82 81 80 80 79 78 77 75 73 72 71 71 71 72 73 73 73 73 73 73 72 72 71 70 70 69 67 66 65 64 64 63 61 60 59 58 57 57 56 56 55
41 41 42 42 42 43 43 43 43 42 41 41 42 45 52 64 75 84 90 94 97 99 99 95 87 78 71 69 67 63 56 51 51 57 67 75 81 84 86 87 87 86 84 83 82 82 81 80 79 78 78 77 76 74 72 71 71 71 72 72 72 72 72 72 72 72 71 70 70 70 70 69 67 65 64 64 63 62 61 60 59 58 58 57 57 56
39 40 40 41 41 42 42 43 43 43 42 42 42 44 49 58 71 82 89 94 98 100 100 98 93 86 80 77 73 67 60 53 50 53 60 69 76 80 84 86 87 87 86 84 83 82 81 79 78 77 77 77 76 74 72 71 71 71 71 71 71 71 71 71 71 70 68 67 68 70 72 70 71 71 65 63 62 62 61 60 59 58 58 58 58 58
37 38 38 39 40 40 41 42 42 43 43 43 43 44 47 54 66 78 88 94 98 101 101 100 96 91 86 81 76 70 64 57 53 53 57 63 70 75 79 83 86 87 86 85 84 82 81 80 78 77 76 76 75 74 73 72 71 70 70 70 70 70 70 70 70 69 67 66 67 68 70 70 71 70 67 65 64 63 62 62 60 59 59 59 59 59
35 36 37 38 38 39 40 41 42 43 43 44 44 45 47 52 61 73 84 92 97 100 102 101 98 94 89 83 77 72 67 62 57 54 55 60 64 68 72 78 83 86 86 86 85 83 81 80 79 77 76 75 74 74 74 73 71 70 69 69 69 69 70 70 70 69 68 67 67 67 68 69 69 68 67 66 66 66 65 64 62 62 61 61 59 58
33 34 35 36 37 37 39 40 41 42 43 44 45 46 48 52 58 68 80 90 96 100 101 100 98 95 91 85 79 73 69 66 61 57 55 57 60 62 66 71 77 82 84 85 85 83 81 79 78 77 76 75 74 74 74 73 72 70 69 69 69 69 70 70 70 70 69 68 67 67 67 67 67 66 66 67 67 67 67 66 64 63 63 62 61 59
31 32 33 34 35 36 37 38 40 41 43 44 45 47 49 52 58 65 76 86 94 99 100 99 97 94 90 85 80 74 69 67 65 61 57 56 57 59 61 65 70 76 80 83 83 83 81 79 77 76 75 75 75 74 74 73 72 71 70 70 69 69 70 70 71 70 70 69 68 68 67 66 66 66 66 66 67 67 67 67 66 64 64 63 63 62
29 30 31 32 33 34 36 37 38 40 41 43 45 47 50 53 58 64 73 83 91 97 99 98 96 93 89 84 79 73 69 67 67 65 61 57 55 56 57 60 64 69 74 78 80 80 80 79 77 76 75 74 74 73 73 72 72 71 71 70 70 70 70 71 71 71 71 71 70 69 68 67 66 66 65 66 66 67 67 67 66 65 64 63 63 64
27 28 29 30 32 33 34 36 37 38 39 41 43 46 49 53 58 64 71 80 88 95 98 97 95 92 88 83 78 72 68 66 66 66 63 59 55 52 52 55 58 63 67 72 75 78 80 78 77 76 74 73 72 72 72 72 72 71 71 70 70 70 71 71 72 72 72 72 71 69 68 67 66 65 64 64 65 65 65 64 64 63 62 61 61 61
25 26 27 29 30 32 33 34 35 36 37 39 41 44 48 52 57 63 69 76 84 91 96 96 93 90 87 82 77 72 67 64 63 64 64 60 54 49 47 49 54 58 61 65 69 73 76 76 76 75 74 72 72 71 71 71 71 70 70 69 69 70 70 70 70 71 71 71 70 69 68 67 65 64 63 62 62 62 62 61 60 59 59 59 59 58
24 24 26 27 29 30 31 32 33 34 36 37 39 42 46 50 55 61 67 73 80 87 91 92 91 88 85 81 77 72 68 64 62 62 62 59 53 48 45 47 51 55 58 61 64 67 71 72 73 73 72 72 71 70 70 70 70 69 69 69 68 68 67 67 67 68 67 67 67 67 66 65 64 63 62 61 60 60 60 59 58 58 58 57 57 57
22 23 24 25 27 28 29 31 32 33 34 36 38 40 43 47 52 57 63 69 76 82 88 90 90 88 84 81 77 74 70 66 62 60 60 57 53 50 49 49 51 54 57 58 60 63 66 68 69 70 70 69 69 68 68 68 67 67 67 67 66 65 64 64 64 64 64 64 64 64 63 63 62 61 60 59 59 59 59 58 58 58 58 57 57 56
22 22 23 24 25 26 27 29 30 31 33 34 36 38 41 44 48 53 58 64 71 77 83 86 87 86 83 80 79 77 74 70 64 60 58 56 54 52 51 50 51 53 55 57 59 60 62 64 65 66 67 66 65 64 64 64 63 64 64 64 63 62 61 61 61 60 59 59 60 60 59 59 59 59 58 58 58 58 58 58 58 58 57 57 56 56
21 22 22 22 23 24 25 27 28 30 31 33 35 36 38 41 44 48 53 59 65 71 77 82 83 82 80 80 80 80 78 73 67 61 58 56 55 53 50 48 48 50 53 56 58 59 60 60 61 62 62 61 60 60 59 59 59 59 59 59 58 58 58 57 56 55 55 55 55 56 56 56 56 56 56 56 57 57 57 57 57 57 57 56 56 55
21 22 22 22 23 23 24 26 27 29 30 32 33 35 37 39 41 44 48 53 59 65 72 77 79 79 78 79 81 81 79 74 68 62 58 57 56 53 48 45 45 47 50 53 56 58 59 59 59 58 57 57 57 57 56 56 55 55 55 54 54 53 53 52 52 51 52 52 52 53 53 54 54 54 55 56 56 56 56 57 56 56 56 55 55 55
22 22 22 23 23 23 24 25 26 28 30 32 33 35 38 39 41 42 44 49 54 60 67 73 75 77 77 79 80 80 77 73 68 63 60 58 56 52 45 42 43 46 48 51 53 55 56 57 57 56 55 54 54 54 54 53 53 52 52 52 51 50 50 49 49 50 50 50 50 51 52 52 53 54 55 55 55 56 56 56 56 56 56 55 55 56
22 22 22 23 23 23 24 25 26 28 30 32 34 37 40 42 42 42 42 45 50 56 62 67 71 74 75 77 78 77 73 70 67 64 61 58 56 52 45 41 41 45 48 49 50 51 52 53 53 54 54 53 53 52 52 51 51 51 51 50 49 48 48 48 48 48 48 48 49 50 50 51 52 54 55 55 55 56 56 56 56 56 56 56 56 57
22 22 22 23 23 23 24 25 26 28 31 33 35 38 42 44 44 43 42 43 46 52 58 64 68 71 73 75 75 74 70 69 67 65 61 58 56 53 49 44 42 44 47 49 49 49 49 49 50 50 51 51 51 50 50 50 50 49 49 48 48 47 47 47 47 47 47 48 48 49 50 51 52 53 54 54 55 56 56 57 57 57 57 57 58 58
22 22 22 23 23 24 24 25 26 28 30 33 36 39 43 45 45 43 41 42 45 50 55 61 66 69 71 73 73 71 70 69 67 64 61 58 55 54 52 49 46 45 47 49 49 48 48 47 47 48 48 49 49 48 48 48 48 48 47 47 47 47 47 47 47 47 48 48 48 49 49 50 51 52 53 54 55 56 57 57 57 58 58 58 58 58
22 22 22 23 23 24 25 25 26 27 29 32 35 39 42 45 44 42 41 42 45 49 54 60 64 67 70 72 72 71 70 67 65 63 61 59 56 54 54 53 51 49 49 49 49 49 48 48 47 47 47 47 47 47 47 46 46 47 47 47 48 48 48 48 49 49 50 50 50 50 51 51 52 53 53 54 55 56 57 57 58 58 59 58 58 58
Wind_Direction
219 219 220 219 219 218 217 215 214 213 213 213 214 214 214 213 213 212 211 209 206 204 203 203 204 206 208 210 211 210 209 210 211 213 216 217 218 218 218 217 217 217 218 220 221 222 222 222 222 222 222 223 224 225 226 227 228 228 229 229 230 230 230 231 231 232 233 234 234 235 235 235 234 233 233 232 231 230 230 229 229 228 228 229 230 230
218 219 219 219 219 219 218 217 215 214 214 214 215 215 214 214 213 213 213 212 210 208 206 206 207 209 211 212 212 211 210 210 212 214 216 218 219 219 218 218 217 217 218 220 221 221 222 222 222 222 222 223 224 225 226 227 227 228 229 229 230 230 230 230 231 231 232 233 234 235 235 236 236 235 234 232 231 230 230 229 229 228 228 229 229 230
218 218 219 219 219 219 219 218 217 216 214 214 215 215 215 214 213 212 212 213 213 211 209 209 210 211 212 213 212 212 212 212 214 216 218 219 220 220 219 218 218 218 218 219 220 221 222 222 223 223 222 223 224 225 225 226 227 228 229 229 229 230 230 230 230 231 232 234 235 235 236 236 237 236 235 233 231 230 229 229 229 228 228 229 230 230
217 218 218 219 219 219 219 219 218 217 216 215 215 216 216 215 213 211 211 212 213 214 212 211 212 212 213 213 213 214 215 216 218 219 220 221 221 220 219 218 218 218 219 219 220 221 222 222 223 223 223 223 224 224 225 226 227 227 228 228 229 229 229 230 230 231 232 233 234 235 235 235 236 236 235 233 231 230 229 229 229 229 229 230 231 231
217 218 218 218 219 219 219 219 219 218 217 216 216 216 217 216 214 213 212 212 213 214 214 214 213 213 213 213 213 213 215 217 219 220 221 221 221 220 219 218 218 218 219 220 220 221 222 222 223 223 223 223 224 224 225 225 226 226 227 227 228 228 229 229 229 230 231 232 234 234 234 234 235 235 235 234 232 231 230 230 229 230 230 231 232 232
217 217 218 218 218 219 219 219 219 219 218 217 217 217 217 216 215 214 213 213 213 214 215 215 214 213 212 212 211 211 212 214 215 217 219 220 221 221 220 219 218 219 219 220 221 221 222 222 223 223 223 223 224 224 225 225 225 226 226 226 227 227 227 228 228 228 230 231 233 233 233 233 234 235 235 235 234 233 233 232 232 232 232 233 234 234
217 217 218 218 218 219 219 219 219 219 218 218 217 217 217 216 216 215 214 214 214 214 216 216 215 214 212 211 210 210 210 210 211 212 215 217 218 219 219 219 219 219 219 220 221 222 222 223 223 224 224 223 224 224 224 225 225 226 226 226 226 226 226 226 226 227 228 230 232 232 233 233 234 234 235 236 236 235 235 235 236 236 236 236 236 235
217 217 217 218 218 218 219 219 219 219 218 217 217 216 216 216 215 215 215 214 214 215 216 217 217 215 213 212 210 210 210 210 210 211 212 213 215 217 218 218 219 219 219 220 221 221 222 222 223 224 224 223 223 224 224 225 225 226 226 226 226 226 226 226 225 226 227 229 231 232 233 233 234 235 235 236 236 237 238 238 239 240 239 238 237 236
216 217 217 217 217 218 218 218 219 219 218 217 216 216 215 215 215 214 214 214 214 214 216 217 218 217 215 213 212 211 211 211 211 211 212 212 213 214 216 217 218 219 219 219 220 221 221 222 222 223 223 223 223 223 224 224 225 225 226 226 226 227 227 226 225 225 226 228 230 231 232 233 234 235 235 236 236 237 238 240 241 241 240 239 237 236
216 217 217 217 217 217 217 217 218 218 217 217 216 215 215 214 214 214 213 213 213 214 215 217 218 218 217 215 213 212 212 212 212 212 212 212 212 213 214 216 217 218 218 219 219 220 221 221 222 223 223 223 223 223 223 223 224 224 225 226 226 227 227 227 226 226 226 227 229 230 232 232 233 234 234 235 235 236 238 239 240 239 238 237 236 235
216 216 217 217 216 216 216 216 217 217 217 216 215 215 214 214 213 213 212 212 212 213 214 216 217 218 218 217 215 214 214 214 214 214 213 213 212 213 214 215 216 217 217 218 219 219 220 220 221 222 223 223 222 222 222 223 223 224 225 225 226 227 228 228 227 227 226 227 228 230 231 231 232 233 233 233 233 234 235 236 235 235 234 234 234 234
215 216 216 216 216 216 216 216 216 216 216 215 215 214 214 213 212 211 210 210 211 211 212 214 215 217 217 217 216 215 215 215 215 215 214 213 213 213 214 215 215 216 217 217 218 219 219 219 220 221 222 222 221 221 221 222 223 224 224 225 226 227 228 228 228 227 226 227 228 229 230 231 231 231 232 231 230 229 229 229 228 228 228 229 231 232
215 216 216 216 216 216 216 216 215 215 215 214 214 213 213 212 211 210 209 209 210 210 211 212 214 215 216 217 216 216 216 216 216 216 215 215 214 214 215 215 216 216 217 217 218 218 218 218 219 220 221 221 221 220 221 221 222 223 224 225 226 227 228 229 229 228 227 227 227 228 229 230 230 230 230 230 228 225 224 223 222 222 223 226 228 230
215 216 217 217 217 216 215 215 214 213 213 213 213 213 212 211 209 208 208 208 209 210 210 211 212 213 215 216 217 217 217 217 217 217 217 216 215 215 215 216 216 216 216 217 217 218 218 218 218 219 220 221 220 220 220 221 222 223 224 225 226 227 228 229 229 229 228 227 227 228 228 229 230 230 230 229 227 225 222 221 221 222 222 225 228 230
214 216 216 217 216 216 215 214 213 212 212 212 212 211 211 209 208 207 207 207 208 209 210 210 211 212 213 215 216 217 217 217 218 218 217 217 216 216 216 216 216 216 216 217 217 218 218 218 218 219 220 220 220 220 220 221 222 223 224 225 226 227 228 228 229 229 228 228 228 228 228 229 230 231 231 230 229 227 224 223 223 223 224 225 226 228
214 215 216 216 216 215 214 213 212 211 211 211 210 210 209 208 207 207 206 206 207 209 210 210 210 210 211 213 215 216 216 216 217 217 217 217 216 216 216 216 216 217 217 217 218 218 218 218 218 219 220 220 221 221 221 221 222 223 224 225 225 226 227 228 228 228 228 228 228 228 229 229 230 231 232 232 231 229 227 225 224 224 224 224 223 222
213 215 216 216 216 215 214 212 211 210 210 209 209 208 207 207 206 206 205 205 206 208 211 211 211 210 210 212 214 215 216 216 216 217 217 217 216 216 216 216 217 217 217 218 218 218 218 218 219 219 220 221 221 221 222 222 222 223 224 224 225 226 226 227 227 228 228 228 229 229 229 229 230 231 232 232 231 230 229 227 226 226 226 224 221 218
212 214 215 216 216 215 213 212 211 210 209 208 207 206 206 206 205 205 204 203 205 207 211 213 213 212 211 211 213 215 216 215 215 216 216 216 216 216 216 216 217 217 217 218 218 218 218 219 219 220 220 221 222 222 222 223 223 224 224 224 225 225 226 227 227 228 228 228 228 228 229 228 227 227 227 228 229 229 228 227 226 226 227 226 223 220
211 213 214 215 215 214 213 212 210 209 208 207 206 205 205 205 204 204 203 202 203 206 210 214 215 214 213 212 213 214 215 215 214 215 215 215 215 215 215 216 216 217 217 217 218 218 218 219 220 220 221 221 222 222 223 223 224 224 224 224 224 225 225 226 227 228 228 228 228 228 227 226 224 221 220 221 223 224 224 225 225 226 226 226 225 223
210 211 213 214 214 214 213 212 210 209 207 206 205 204 203 203 203 203 202 201 201 203 207 211 214 215 214 213 213 213 213 213 214 214 215 215 214 214 215 215 216 216 217 217 218 218 219 219 220 220 221 221 222 223 223 223 224 224 224 224 224 224 225 226 226 227 227 227 228 228 228 227 225 223 221 221 222 223 224 225 225 225 226 227 226 225
208 210 211 212 213 213 213 212 210 209 207 205 204 203 202 202 202 201 201 200 200 201 204 206 210 212 213 212 212 212 212 212 213 214 214 214 214 214 215 215 216 216 216 217 217 218 219 219 220 220 221 221 222 222 222 223 223 223 223 224 224 224 224 225 226 226 227 227 228 229 229 229 229 228 227 226 227 227 228 228 228 228 228 229 229 228
207 209 210 211 212 212 212 212 210 208 207 205 204 202 202 201 200 200 199 199 199 200 201 202 205 208 210 210 210 210 211 212 213 213 214 214 214 214 215 215 215 216 216 217 217 218 219 219 220 220 221 221 221 221 222 222 222 223 223 223 224 224 224 225 225 226 226 227 228 229 229 230 230 231 231 231 231 231 232 232 232 232 232 232 233 233
206 207 209 210 211 212 212 211 210 208 207 205 203 202 201 200 199 199 198 198 198 199 200 199 200 203 206 208 208 209 211 212 213 214 214 214 214 214 215 215 215 216 216 216 217 218 218 219 220 220 221 221 221 221 222 222 222 223 223 223 224 224 224 224 225 225 226 226 227 228 229 230 231 231 232 232 233 233 234 234 235 235 235 236 236 237
205 206 208 209 210 210 211 210 210 209 207 205 203 202 200 199 199 198 198 197 197 199 200 197 195 197 201 205 206 208 210 213 214 214 214 214 214 214 214 215 215 215 216 216 217 217 218 219 219 220 220 221 221 222 222 222 223 223 223 223 224 224 224 224 224 225 225 226 227 228 229 230 231 231 232 233 233 234 234 235 235 236 237 238 238 239
205 206 207 208 209 209 210 210 209 208 207 206 204 202 200 199 198 198 197 197 197 199 200 197 193 192 196 200 203 205 209 212 214 214 214 214 214 214 214 214 214 215 215 216 216 217 218 218 219 219 220 221 221 222 222 222 223 223 223 223 224 223 223 223 224 224 225 225 226 227 228 229 230 231 232 232 233 234 235 235 236 236 237 238 239 240
204 205 206 207 208 208 209 209 209 208 207 206 204 203 200 199 198 197 197 196 197 199 200 198 193 190 191 194 197 200 204 208 211 213 214 214 213 213 213 213 213 214 214 215 216 216 217 218 218 219 219 220 221 221 222 222 222 223 223 223 223 223 223 222 223 224 225 225 226 227 228 229 230 231 232 232 233 234 235 235 236 236 236 238 239 240
204 205 206 207 207 208 208 208 208 208 207 206 205 203 201 199 197 196 196 196 197 199 200 199 194 189 187 189 192 195 199 203 207 211 212 213 212 212 212 212 212 213 214 214 215 216 216 217 217 218 218 219 219 220 221 221 222 222 222 223 223 222 222 221 222 223 224 225 226 227 228 229 230 231 232 232 233 234 235 235 236 236 236 237 239 240
205 206 206 207 207 207 208 208 207 207 207 206 205 203 201 199 197 196 196 196 197 198 200 199 195 190 185 185 187 190 193 198 203 207 210 211 211 211 212 212 212 212 213 214 214 215 216 216 217 217 217 218 218 219 220 221 221 222 222 222 222 222 221 221 221 222 223 224 225 226 227 228 229 230 231 232 233 234 235 235 236 236 237 238 239 241
205 206 207 207 208 208 208 208 207 207 207 206 206 204 202 199 197 196 196 196 197 198 200 199 195 191 187 184 184 185 188 193 199 204 207 209 210 211 212 212 212 212 213 213 214 215 215 216 216 216 217 217 218 219 219 220 220 221 221 221 222 221 221 220 221 221 222 223 224 225 227 228 229 230 231 232 233 234 235 235 236 236 237 238 240 241
206 207 208 209 209 209 209 209 208 208 207 207 206 205 203 200 198 197 196 196 197 198 200 199 197 194 190 186 184 184 187 192 198 202 205 207 209 211 212 212 212 213 213 213 214 214 215 215 216 216 216 217 218 218 219 220 220 220 220 221 221 221 221 220 221 221 222 223 224 225 226 227 228 229 230 231 232 233 234 234 235 236 237 238 239 240
207 208 209 210 211 211 211 210 210 209 208 208 207 206 204 201 199 197 197 196 197 199 200 199 198 196 193 191 189 190 192 196 198 200 203 206 209 211 212 212 212 213 213 213 213 214 215 215 215 216 216 217 217 218 219 219 219 219 220 220 220 220 220 220 220 221 222 223 224 225 226 227 228 229 230 230 231 232 233 234 235 236 237 238 239 239
208 209 210 212 212 213 213 213 212 212 211 209 208 207 205 203 200 198 197 197 198 200 201 200 199 197 196 196 197 199 200 201 200 199 201 204 207 210 212 212 213 213 213 213 213 214 214 215 215 215 216 216 217 218 218 219 219 219 219 219 220 220 220 220 220 221 222 222 223 224 226 227 228 229 230 230 231 232 233 235 236 237 237 238 239 239
209 210 212 213 214 215 215 215 215 214 213 212 210 208 207 204 202 200 198 198 199 201 202 202 201 199 200 202 205 206 206 204 201 198 199 202 205 208 211 212 213 213 213 213 213 214 214 215 215 215 216 216 217 217 218 219 219 218 219 219 220 220 221 221 221 221 221 222 223 224 225 227 228 229 230 231 232 232 233 234 236 236 237 238 238 239
209 211 213 214 215 216 217 217 217 217 216 215 213 210 208 206 203 201 200 199 200 202 203 204 203 202 203 207 209 210 209 206 202 198 197 199 201 204 208 211 212 213 213 213 213 213 214 214 215 215 216 216 217 217 218 218 219 218 219 219 220 221 221 222 222 222 222 222 223 225 226 227 229 230 230 231 232 232 233 234 234 234 235 236 237 238
210 212 214 215 217 218 219 220 220 220 219 218 216 213 210 207 205 203 201 201 201 203 204 205 205 205 206 209 211 211 210 208 203 199 197 197 199 201 204 208 211 212 213 213 213 214 214 214 215 215 216 217 217 218 218 219 219 219 219 220 220 221 222 223 223 223 223 224 225 226 227 227 229 231 230 231 232 232 233 234 233 233 234 235 236 238
211 213 215 217 218 220 221 222 222 222 222 221 219 216 212 209 206 204 203 202 202 204 205 206 207 208 209 211 211 211 210 209 206 202 198 197 198 199 201 204 208 210 212 213 214 214 214 215 215 215 216 216 217 218 219 219 220 220 220 221 221 221 222 223 223 224 224 225 226 227 228 228 229 230 231 231 232 233 234 234 234 234 234 234 235 235
212 214 216 218 220 222 223 224 224 224 224 223 221 218 214 210 207 205 204 203 203 205 207 208 209 210 211 212 212 212 211 211 209 206 202 199 198 199 200 201 204 207 210 212 213 214 215 215 216 216 216 217 217 218 219 220 220 221 221 221 222 222 222 222 223 223 224 224 225 226 227 228 228 229 231 232 233 233 234 234 234 234 235 235 234 234
212 215 217 219 221 223 224 225 225 226 225 224 223 220 216 212 208 206 204 204 204 206 208 209 211 212 212 213 213 212 211 212 212 210 207 203 201 200 200 200 201 203 206 209 211 213 214 214 215 216 217 217 218 219 219 220 221 222 222 222 222 222 222 223 223 223 222 223 224 225 226 226 227 229 230 231 232 233 234 234 234 235 235 235 235 235
212 215 217 219 221 222 224 224 225 225 225 225 223 220 217 213 209 206 205 204 204 206 208 210 211 212 213 213 213 212 211 212 213 213 211 208 205 203 202 201 200 200 202 205 208 210 211 213 214 215 216 217 218 219 219 220 221 222 222 222 223 223 223 223 222 222 222 222 223 223 225 225 226 227 228 230 231 232 232 233 234 235 235 235 236 236
210 213 216 218 220 221 222 223 223 224 224 223 222 220 217 213 209 207 205 204 204 206 208 210 211 212 213 213 212 211 210 211 212 214 214 212 210 208 206 204 202 200 199 201 203 206 208 210 212 213 214 216 217 218 219 219 220 221 221 222 222 223 223 223 222 222 221 222 222 223 224 224 225 226 227 228 229 230 231 232 233 233 234 234 235 236
208 211 214 216 217 218 219 220 220 221 221 221 220 218 216 213 210 207 205 204 204 206 208 210 211 212 212 212 211 209 208 208 210 213 213 213 211 210 209 209 206 203 200 199 200 202 205 207 209 210 211 213 215 216 217 218 219 219 220 220 221 222 222 222 222 222 222 222 222 223 224 224 225 225 226 227 228 229 229 230 231 231 232 233 233 234
205 208 211 213 215 215 216 217 217 217 218 218 217 216 215 213 210 207 206 204 204 205 207 209 211 211 211 211 209 207 205 205 207 210 212 211 210 208 206 208 208 207 203 200 199 199 201 204 206 207 209 210 211 213 215 216 217 218 218 219 220 221 221 222 222 222 222 223 223 224 224 225 225 226 227 228 229 229 230 230 231 231 231 232 232 233
203 207 209 211 212 212 213 213 214 215 215 215 215 214 213 212 210 208 206 204 204 205 206 208 209 210 210 209 208 206 204 202 204 207 209 209 207 205 203 205 208 208 206 203 200 199 199 200 203 204 206 208 209 210 212 214 215 217 218 219 220 221 221 222 223 223 224 225 225 226 226 227 227 228 229 229 230 230 230 231 231 231 231 232 232 232
202 206 208 210 211 211 211 211 212 212 212 212 212 211 211 210 208 207 206 204 204 204 205 207 208 209 209 208 206 205 203 202 202 205 208 208 207 205 204 206 208 208 207 205 203 200 199 199 200 201 203 204 206 207 209 211 213 215 217 218 220 221 222 223 224 224 225 226 227 227 228 228 228 229 229 229 230 230 230 230 230 231 231 232 232 232
201 205 208 210 211 210 210 210 210 209 209 208 208 207 206 206 205 204 204 204 204 204 205 206 207 208 208 207 206 205 204 203 203 204 206 207 206 204 204 205 206 207 207 206 204 202 200 199 199 199 200 201 203 205 206 208 210 212 214 216 218 220 222 223 224 224 225 226 227 227 228 228 228 228 228 228 229 229 229 229 229 230 230 231 231 232
201 205 208 210 211 210 210 209 207 206 205 204 203 202 200 199 200 201 202 203 203 204 204 205 206 206 206 206 206 206 205 204 204 205 205 204 202 201 200 200 202 204 205 205 205 203 202 201 201 200 201 201 202 204 205 206 208 209 212 214 216 218 220 221 222 223 224 225 226 227 227 228 228 228 228 228 228 229 229 229 229 229 229 230 230 231
201 204 206 208 209 209 209 207 205 203 202 200 199 197 195 194 194 197 200 202 203 203 204 204 204 205 205 205 205 205 204 203 203 204 203 200 197 194 192 194 197 200 202 202 203 203 202 202 202 202 203 203 204 205 206 207 208 209 211 212 214 216 218 220 221 222 223 225 226 227 227 228 228 228 229 229 229 229 229 229 229 229 229 229 230 230
199 202 204 206 206 206 206 205 204 202 199 198 197 195 194 192 192 194 197 200 201 202 203 203 203 203 203 203 204 204 203 201 201 201 198 194 191 188 185 187 193 197 199 199 200 200 201 202 202 203 203 205 206 208 209 209 210 211 213 214 215 217 219 221 222 224 225 226 227 228 228 229 229 230 230 230 229 230 230 230 230 230 230 230 230 230
198 200 202 203 203 202 202 203 202 201 199 198 197 196 195 194 194 194 195 197 198 200 201 202 202 201 201 201 201 200 198 198 197 194 191 187 185 183 181 183 189 195 197 197 197 198 199 201 202 203 204 205 206 208 210 211 213 214 215 216 218 219 221 223 225 226 228 229 230 231 231 231 231 231 231 231 230 230 230 230 230 230 231 231 231 232
197 198 200 200 199 198 198 200 200 200 199 199 198 198 197 197 196 195 195 194 195 197 198 199 199 199 199 199 198 195 192 191 190 187 184 183 182 181 180 181 185 191 195 196 196 197 197 199 201 203 205 206 207 208 210 212 214 216 218 219 221 223 224 226 228 230 231 232 233 234 234 234 233 233 232 232 231 231 231 231 231 231 231 232 232 233
196 197 198 198 197 195 195 196 198 199 199 199 199 199 199 199 198 197 195 194 193 194 195 196 196 196 195 194 192 189 187 187 185 183 181 181 181 181 181 181 183 187 191 194 196 196 196 197 199 202 204 207 208 209 211 213 216 218 220 223 225 227 229 231 232 234 235 235 236 236 235 235 234 234 233 232 231 230 231 231 231 231 232 232 232 233